Tracking 30685 objects as of 17-Jun-2025
HD Live streaming from Space Station
objects crossing your sky now

STARLINK-34139

Track STARLINK-34139 now!
10-day predictions
STARLINK-34139 is classified as:


NORAD ID: 63975
Int'l Code: 2025-099Z
Perigee: 430.6 km
Apogee: 432.9 km
Inclination: 43.0 °
Period: 93.1 minutes
Semi major axis: 6802 km
RCS: Unknown
Launch date: May 13, 2025
Source: United States (US)
Launch site: AIR FORCE EASTERN TEST RANGE (AFETR)
Your satellite tracking list
Your tracking list is empty




NASA's NSSDC Master Catalog

Two Line Element Set (TLE):
1 63975U 25099Z   25168.16667824 -.01490970  00000-0 -31491-1 0  9998
2 63975  42.9993 234.3240 0001653 255.4105 133.5778 15.47307092  6652
Source of the keplerian elements: AFSPC